Location: Doughton Park
(36.4224°N, 81.1835°W)
Time: 06:32:53
(UTC-04:00)

Amateur Radio Satellites - All Passes

Search period start: 27 April 2015 06:02
Search period end: 28 April 2015 06:02
Location: Doughton Park, 36.4224°N, 81.1835°W

Satellite Date Start Highest point End Downlink Frequencies (MHz)
Time Altitude Azimuth
PRISM 27 Apr 06:27:50 06:30:39 18° 69° (ENE) 06:33:34 437.425
DANDE 27 Apr 06:28:37 06:35:09 28° 271° (W) 06:41:52 436.750
JAS-2 27 Apr 06:29:49 06:35:15 32° 293° (WNW) 06:40:05 435.910
MOZHAYETS 4 27 Apr 06:31:45 06:34:48 17° 268° (W) 06:37:40
HORYU 2 27 Apr 06:33:19 06:35:01 12° 295° (WNW) 06:36:26 437.375
CUBESAT XI-V 27 Apr 06:33:58 06:38:12 37° 72° (ENE) 06:42:28 437.345
SRMSAT 27 Apr 06:37:30 06:39:45 12° 190° (S) 06:41:54 437.500
M-CUBED/EXP-1 PRIME 27 Apr 06:51:01 06:55:49 82° 253° (WSW) 07:00:41 437.505
CUTE-I 27 Apr 07:14:43 07:19:39 39° 98° (E) 07:24:39 437.470
STRAND 1 27 Apr 07:17:51 07:22:48 54° 74° (ENE) 07:27:48 437.568
Cubesat XI-IV 27 Apr 07:24:41 07:29:51 50° 99° (E) 07:35:02 437.490
O/OREOS (USA 219) 27 Apr 07:32:22 07:34:12 12° 55° (NE) 07:36:14 437.305
AUBIESAT-1 27 Apr 07:32:31 07:36:51 33° 259° (W) 07:41:10 437.475
Cosmos 2499 27 Apr 07:37:21 07:44:04 34° 273° (W) 07:50:16 435.465 / 435.565
AO-7 27 Apr 07:54:41 07:59:27 16° 306° (NW) 08:03:46 29.400- 29.500
PRISM 27 Apr 08:02:10 08:05:55 31° 263° (W) 08:09:37 437.425
CUBESAT XI-V 27 Apr 08:12:32 08:15:48 18° 268° (W) 08:18:55 437.345
BRITE-PL 27 Apr 08:22:11 08:24:46 14° 90° (E) 08:27:44 437.365/2234.400
PCSat 27 Apr 08:42:06 08:47:31 90° 260° (W) 08:52:59 145.827
CUTE-I 27 Apr 08:55:20 08:59:32 24° 292° (WNW) 09:03:37 437.470
STRAND 1 27 Apr 08:59:24 09:02:25 15° 269° (W) 09:05:10 437.568
Cubesat XI-IV 27 Apr 09:05:53 09:09:37 19° 294° (WNW) 09:13:09 437.490
O/OREOS (USA 219) 27 Apr 09:09:42 09:14:06 59° 253° (WSW) 09:18:29 437.305
COMPASS 1 27 Apr 09:14:57 09:15:16 10° 89° (E) 09:15:53 437.405
GOMX 1 27 Apr 09:37:19 09:42:26 52° 99° (E) 09:47:45 467.674
SEEDS 27 Apr 09:40:18 09:43:55 28° 95° (E) 09:47:34 437.485
Cosmos 2491 27 Apr 09:40:49 09:48:33 34° 72° (ENE) 09:56:28 435.465 / 435.565
HO-68 27 Apr 09:45:28 09:52:21 48° 100° (E) 09:59:15 435.675
CANX-2 27 Apr 09:51:14 09:55:25 52° 99° (E) 09:59:34 2200.000
AAUSAT CUBESAT 2 27 Apr 09:53:19 09:56:51 27° 95° (E) 10:00:25 437.432
BRITE-PL 27 Apr 09:58:30 10:03:39 65° 285° (WNW) 10:09:09 437.365/2234.400
CUTE 1.7 + AOD 2 27 Apr 10:00:04 10:04:18 60° 100° (E) 10:08:30 437.475
DOVE 4 27 Apr 10:05:36 10:10:46 68° 101° (E) 10:16:04 437.250
TIGRISAT 27 Apr 10:21:40 10:24:56 20° 69° (ENE) 10:28:24 435.000
CUBEBUG 2 27 Apr 10:25:30 10:29:32 27° 94° (E) 10:33:35 437.445
UNISAT 6 27 Apr 10:26:27 10:30:01 24° 69° (ENE) 10:33:45 437.425
PCSat 27 Apr 10:29:04 10:31:48 13° 316° (NW) 10:34:17 145.827
DUCHIFAT 1 27 Apr 10:37:13 10:39:00 13° 67° (ENE) 10:41:00 145.980
CINEMA 3 27 Apr 10:37:18 10:42:19 73° 101° (E) 10:47:21 145.822/145.860
POLYITAN 1 27 Apr 10:38:05 10:40:11 14° 67° (ENE) 10:42:29 437.675
YUBILEINY 27 Apr 10:42:23 10:50:17 40° 88° (E) 10:58:20 435.215
COMPASS 1 27 Apr 10:47:16 10:51:23 54° 285° (WNW) 10:55:26 437.405
UWE-3 27 Apr 10:47:42 10:52:04 38° 97° (E) 10:56:24 435.000/436.395/437.385
DELFI C3 27 Apr 10:52:22 10:56:14 43° 99° (E) 11:00:04 145.870
FUNcube-1 27 Apr 10:52:41 10:56:49 33° 96° (E) 11:00:56 145.935
QB50P1 27 Apr 10:54:26 10:57:33 21° 70° (ENE) 11:00:48 145.935-145.965
UKube-1 27 Apr 10:56:01 10:58:57 18° 93° (E) 11:02:01 .
HUMSAT D 27 Apr 11:00:27 11:03:22 18° 92° (E) 11:06:23 437.325/437.525
ANTELSAT 27 Apr 11:07:30 11:12:00 68° 76° (ENE) 11:16:37 437.575/2403.000
Oscar 11 27 Apr 11:13:49 11:18:10 73° 284° (WNW) 11:22:27 145.826/435.025
BEESAT 3 27 Apr 11:14:10 11:17:12 20° 49° (NE) 11:20:17 437.485
SEEDS 27 Apr 11:16:22 11:19:35 21° 290° (WNW) 11:22:42 437.485
GOMX 1 27 Apr 11:16:35 11:20:13 19° 292° (WNW) 11:23:45 467.674
BEESAT 2 27 Apr 11:17:59 11:20:52 19° 48° (NE) 11:23:50 435.950
ZACube-1 27 Apr 11:18:29 11:23:05 67° 101° (E) 11:27:38 437.345
QB50P2 27 Apr 11:20:13 11:24:12 43° 74° (ENE) 11:28:14 145.880/145.840
AAUSAT CUBESAT 2 27 Apr 11:29:09 11:32:21 21° 290° (WNW) 11:35:26 437.432
CANX-2 27 Apr 11:29:10 11:30:56 12° 293° (WNW) 11:32:29 2200.000
VELOX 1 27 Apr 11:29:20 11:32:40 21° 94° (E) 11:36:08 145.980
50 SAT 27 Apr 11:31:30 11:34:43 23° 95° (E) 11:37:59 437.505
HO-68 27 Apr 11:33:44 11:39:50 30° 296° (WNW) 11:45:45 435.675
ISS 27 Apr 11:34:55 11:38:08 63° 136° (SE) 11:41:21 145.825
NANOSAT C BR1 27 Apr 11:36:53 11:41:02 67° 75° (ENE) 11:45:14 145.865
Cosmos 2491 27 Apr 11:37:18 11:45:41 48° 270° (W) 11:53:55 435.465 / 435.565
CUTE 1.7 + AOD 2 27 Apr 11:38:45 11:39:45 11° 294° (WNW) 11:40:30 437.475
POPSAT HIP 1 27 Apr 11:40:53 11:45:04 75° 77° (ENE) 11:49:18 437.405
SO-50 27 Apr 11:44:27 11:49:02 75° 118° (ESE) 11:53:49 436.795
DOVE 4 27 Apr 11:45:15 11:48:03 14° 294° (WNW) 11:50:39 437.250
AISAT 27 Apr 11:47:22 11:51:28 35° 98° (E) 11:55:36 437.250
DX 1 27 Apr 11:50:23 11:54:47 87° 107° (ESE) 11:59:10 434.975-435.025
AIST 1 27 Apr 11:53:53 11:57:39 30° 77° (ENE) 12:01:28
BUGSAT 1 27 Apr 11:56:02 12:00:02 77° 77° (ENE) 12:04:04 437.445
TIGRISAT 27 Apr 11:57:21 12:01:29 34° 264° (W) 12:05:40 435.000
CUBEBUG 2 27 Apr 12:02:05 12:06:10 28° 289° (WNW) 12:10:07 437.445
UNISAT 6 27 Apr 12:02:43 12:06:41 29° 265° (W) 12:10:41 437.425
DUCHIFAT 1 27 Apr 12:10:24 12:14:27 47° 261° (W) 12:18:32 145.980
POLYITAN 1 27 Apr 12:11:43 12:15:44 44° 261° (W) 12:19:49 437.675
Cosmos 2504 27 Apr 12:13:52 12:16:19 12° 79° (E) 12:19:35 435.465 / 435.565
CINEMA 3 27 Apr 12:16:49 12:18:59 12° 294° (WNW) 12:20:52 145.822/145.860
UWE-3 27 Apr 12:24:55 12:28:20 20° 291° (WNW) 12:31:35 435.000/436.395/437.385
AIST 2 27 Apr 12:29:07 12:32:55 32° 53° (NE) 12:36:41 435.215
DELFI C3 27 Apr 12:29:10 12:31:01 13° 292° (WNW) 12:32:41 145.870
FUNcube-1 27 Apr 12:29:26 12:32:57 21° 291° (WNW) 12:36:20 145.935
QB50P1 27 Apr 12:29:39 12:33:18 27° 264° (W) 12:36:54 145.935-145.965
UKube-1 27 Apr 12:31:17 12:35:12 33° 288° (WNW) 12:39:04 .
ESTCUBE 1 27 Apr 12:32:26 12:36:53 61° 101° (E) 12:41:19 437.505/2401.250
HUMSAT D 27 Apr 12:35:18 12:39:14 33° 288° (WNW) 12:43:05 437.325/437.525
YUBILEINY 27 Apr 12:38:53 12:47:07 41° 286° (WNW) 12:55:13 435.215
SPROUT 27 Apr 12:43:16 12:46:05 17° 92° (E) 12:49:03 437.525
BEESAT 3 27 Apr 12:51:37 12:55:19 33° 246° (WSW) 12:58:55 437.485
BEESAT 2 27 Apr 12:55:20 12:59:09 37° 246° (WSW) 13:02:52 435.950
ZACube-1 27 Apr 12:57:23 12:58:56 11° 294° (WNW) 13:00:12 437.345
QB50P2 27 Apr 12:58:12 13:00:23 13° 269° (W) 13:02:21 145.880/145.840
CUBEBUG 1 27 Apr 13:04:51 13:09:11 63° 285° (WNW) 13:13:31 437.445
VELOX 1 27 Apr 13:05:22 13:09:17 30° 289° (WNW) 13:13:08 145.980
50 SAT 27 Apr 13:06:14 13:09:26 22° 289° (WNW) 13:12:32 437.505
Oscar 19 27 Apr 13:11:57 13:15:58 24° 68° (ENE) 13:20:07 437.125/150
ISS 27 Apr 13:12:36 13:14:46 16° 333° (NNW) 13:16:53 145.825
RS-15 27 Apr 13:20:28 13:28:39 27° 105° (ESE) 13:37:23 29.354- 29.394
AISAT 27 Apr 13:24:39 13:27:50 19° 292° (WNW) 13:30:54 437.250
SO-50 27 Apr 13:27:34 13:30:14 14° 318° (NW) 13:32:45 436.795
AIST 1 27 Apr 13:32:12 13:35:06 17° 271° (W) 13:37:52
TISAT 1 27 Apr 13:40:11 13:44:25 63° 100° (E) 13:48:39 437.305
ITAMSAT 1 27 Apr 13:51:42 13:54:58 18° 66° (ENE) 13:58:26 435.822/435.867
Cosmos 2504 27 Apr 13:59:44 14:08:33 74° 94° (E) 14:17:18 435.465 / 435.565
AIST 2 27 Apr 14:08:08 14:11:20 21° 248° (WSW) 14:14:22 435.215
ESTCUBE 1 27 Apr 14:11:39 14:13:18 12° 294° (WNW) 14:14:42 437.505/2401.250
SPROUT 27 Apr 14:18:21 14:22:19 35° 287° (WNW) 14:26:13 437.525
Gurwin Techsat 1B 27 Apr 14:31:04 14:35:51 37° 71° (ENE) 14:40:43 435.225
ITUPSAT 1 27 Apr 14:39:56 14:44:24 39° 98° (E) 14:48:51 437.325
Oscar 19 27 Apr 14:50:24 14:55:09 36° 263° (W) 14:59:53 437.125/150
JAS-2 27 Apr 14:54:59 14:58:59 16° 61° (ENE) 15:03:19 435.910
AO-7 27 Apr 15:05:26 15:11:26 24° 58° (ENE) 15:17:45 29.400- 29.500
BEESAT 27 Apr 15:09:17 15:14:04 86° 103° (ESE) 15:18:48 436.000
SWISSCUBE 27 Apr 15:12:09 15:16:55 82° 284° (WNW) 15:21:39 437.505
TISAT 1 27 Apr 15:19:04 15:19:44 10° 294° (WNW) 15:20:08 437.305
STARS 27 Apr 15:24:44 15:26:22 12° 90° (E) 15:28:17 437.465
ITAMSAT 1 27 Apr 15:29:05 15:34:07 51° 260° (W) 15:39:10 435.822/435.867
RS-15 27 Apr 15:29:15 15:40:08 72° 303° (WNW) 15:51:14 29.354- 29.394
HORYU 2 27 Apr 15:50:10 15:54:21 41° 73° (ENE) 15:58:36 437.375
Cosmos 2504 27 Apr 15:56:03 16:02:52 23° 293° (WNW) 16:09:14 435.465 / 435.565
VERMONT LUNAR 27 Apr 16:05:15 16:08:27 43° 152° (SSE) 16:11:40 437.305
KKS-1 27 Apr 16:09:05 16:13:34 68° 101° (ESE) 16:18:03 437.445
Gurwin Techsat 1B 27 Apr 16:11:36 16:15:56 24° 266° (W) 16:20:09 435.225
ITUPSAT 1 27 Apr 16:18:37 16:22:02 19° 292° (WNW) 16:25:18 437.325
JAS-2 27 Apr 16:35:16 16:43:08 81° 75° (ENE) 16:50:47 435.910
MOZHAYETS 4 27 Apr 16:52:54 16:54:24 12° 89° (E) 16:56:11
PHONESAT 2.4 27 Apr 16:53:56 16:57:13 36° 151° (SSE) 17:00:34 2401.200-2431.200
AO-7 27 Apr 16:55:18 17:03:35 73° 255° (WSW) 17:11:52 29.400- 29.500
STARS 27 Apr 16:58:52 17:03:13 52° 286° (WNW) 17:07:32 437.465
GONETS M04 27 Apr 17:00:48 17:09:26 69° 93° (E) 17:18:12
CUSAT 1 27 Apr 17:03:38 17:06:28 22° 86° (E) 17:10:03 437.405
HORYU 2 27 Apr 17:28:23 17:31:14 16° 268° (W) 17:33:53 437.375
PCSat 27 Apr 17:32:43 17:37:51 42° 57° (ENE) 17:42:58 145.827
VERMONT LUNAR 27 Apr 17:42:35 17:45:54 51° 348° (NNW) 17:49:13 437.305
RS-15 27 Apr 17:46:50 17:55:04 22° 331° (NNW) 18:03:09 29.354- 29.394
KKS-1 27 Apr 17:48:33 17:49:42 11° 295° (WNW) 17:50:34 437.445
DANDE 27 Apr 17:56:05 17:59:21 69° 97° (E) 18:03:43 436.750
ISS 27 Apr 18:04:33 18:07:21 26° 32° (NNE) 18:10:11 145.825
Cosmos 2499 27 Apr 18:15:56 18:23:44 38° 88° (E) 18:31:32 435.465 / 435.565
JAS-2 27 Apr 18:23:31 18:28:53 19° 272° (W) 18:33:45 435.910
MOZHAYETS 4 27 Apr 18:27:34 18:32:04 56° 285° (WNW) 18:36:32
PHONESAT 2.4 27 Apr 18:31:51 18:35:24 59° 347° (NNW) 18:38:57 2401.200-2431.200
CUTE-I 27 Apr 18:34:04 18:39:10 51° 73° (ENE) 18:44:19 437.470
CUBESAT XI-V 27 Apr 18:35:32 18:36:42 11° 89° (E) 18:38:11 437.345
Cubesat XI-IV 27 Apr 18:44:11 18:49:26 65° 75° (ENE) 18:54:44 437.490
CUSAT 1 27 Apr 18:46:13 18:49:11 20° 294° (WNW) 18:52:41 437.405
AO-7 27 Apr 18:55:40 18:57:57 11° 274° (W) 18:59:22 29.400- 29.500
GONETS M04 27 Apr 19:00:22 19:07:11 23° 293° (WNW) 19:13:40
PCSat 27 Apr 19:16:44 19:21:02 24° 252° (WSW) 19:25:10 145.827
AUBIESAT-1 27 Apr 19:17:09 19:20:12 22° 98° (E) 19:23:09 437.475
VERMONT LUNAR 27 Apr 19:20:27 19:23:41 40° 5° (N) 19:26:54 437.305
STRAND 1 27 Apr 19:31:38 19:35:32 22° 94° (E) 19:39:33 437.568
ISS 27 Apr 19:40:51 19:43:41 27° 228° (SW) 19:46:28 145.825
PRISM 27 Apr 19:46:45 19:50:36 39° 98° (E) 19:54:28 437.425
RS-15 27 Apr 20:08:16 20:13:35 14° 7° (N) 20:19:09 29.354- 29.394
Cosmos 2499 27 Apr 20:08:21 20:16:47 45° 284° (WNW) 20:24:55 435.465 / 435.565
CUBESAT XI-V 27 Apr 20:10:04 20:14:37 60° 285° (WNW) 20:19:10 437.345
PHONESAT 2.4 27 Apr 20:10:31 20:13:57 41° 3° (N) 20:17:24 2401.200-2431.200
M-CUBED/EXP-1 PRIME 27 Apr 20:10:50 20:14:53 62° 290° (WNW) 20:18:34 437.505
HO-68 27 Apr 20:12:01 20:17:51 29° 64° (ENE) 20:23:52 435.675
CUTE-I 27 Apr 20:16:02 20:19:36 17° 268° (W) 20:22:57 437.470
SO-50 27 Apr 20:18:30 20:23:02 35° 52° (NE) 20:27:34 436.795
Cubesat XI-IV 27 Apr 20:27:23 20:30:05 13° 270° (W) 20:32:28 437.490
SEEDS 27 Apr 20:31:04 20:33:30 16° 69° (ENE) 20:36:08 437.485
CANX-2 27 Apr 20:42:00 20:45:37 28° 72° (ENE) 20:49:20 2200.000
AAUSAT CUBESAT 2 27 Apr 20:43:01 20:45:14 14° 68° (ENE) 20:47:38 437.432
GOMX 1 27 Apr 20:43:56 20:47:46 36° 72° (ENE) 20:51:49 467.674
CUTE 1.7 + AOD 2 27 Apr 20:50:37 20:54:23 31° 72° (ENE) 20:58:14 437.475
AUBIESAT-1 27 Apr 20:51:45 20:54:59 23° 296° (WNW) 20:57:58 437.475
YUBILEINY 27 Apr 20:57:06 21:01:51 16° 62° (ENE) 21:07:08 435.215
VERMONT LUNAR 27 Apr 20:57:56 21:01:20 85° 202° (SSW) 21:04:42 437.305
BRITE-PL 27 Apr 21:07:44 21:11:51 70° 259° (W) 21:16:09 437.365/2234.400
DOVE 4 27 Apr 21:09:19 21:13:22 45° 74° (ENE) 21:17:40 437.250
STRAND 1 27 Apr 21:10:10 21:14:51 37° 289° (WNW) 21:19:30 437.568
CUBEBUG 2 27 Apr 21:22:25 21:25:07 17° 67° (ENE) 21:28:02 437.445
PRISM 27 Apr 21:23:28 21:25:47 14° 292° (WNW) 21:27:55 437.425
COMPASS 1 27 Apr 21:35:35 21:39:48 71° 76° (ENE) 21:44:02 437.405
CINEMA 3 27 Apr 21:36:48 21:40:56 46° 74° (ENE) 21:45:19 145.822/145.860
DELFI C3 27 Apr 21:38:09 21:41:07 20° 70° (ENE) 21:44:11 145.870
O/OREOS (USA 219) 27 Apr 21:41:07 21:44:30 21° 102° (ESE) 21:48:01 437.305
UWE-3 27 Apr 21:43:00 21:46:22 23° 70° (ENE) 21:49:55 435.000/436.395/437.385
FUNcube-1 27 Apr 21:46:48 21:49:50 19° 69° (ENE) 21:53:04 145.935
PHONESAT 2.4 27 Apr 21:48:49 21:52:25 84° 17° (NNE) 21:56:00 2401.200-2431.200
UKube-1 27 Apr 21:50:05 21:51:40 12° 66° (ENE) 21:53:28 .
HO-68 27 Apr 21:58:18 22:05:16 51° 260° (W) 22:12:15 435.675
SO-50 27 Apr 21:59:22 22:03:28 26° 248° (WSW) 22:07:25 436.795
SEEDS 27 Apr 22:04:59 22:09:01 40° 262° (W) 22:13:03 437.485
Oscar 11 27 Apr 22:05:48 22:10:05 61° 75° (ENE) 22:14:25 145.826/435.025
ZACube-1 27 Apr 22:12:04 22:16:03 37° 73° (ENE) 22:20:12 437.345
AAUSAT CUBESAT 2 27 Apr 22:16:31 22:20:32 42° 262° (W) 22:24:33 437.432
50 SAT 27 Apr 22:16:53 22:17:36 11° 67° (ENE) 22:18:33 437.505
CANX-2 27 Apr 22:18:10 22:21:34 22° 266° (W) 22:24:51 2200.000
RS-15 27 Apr 22:21:27 22:31:17 32° 40° (NE) 22:41:45 29.354- 29.394
GOMX 1 27 Apr 22:23:32 22:26:11 16° 270° (W) 22:28:42 467.674
VELOX 1 27 Apr 22:25:44 22:28:05 15° 67° (ENE) 22:30:38 145.980
CUTE 1.7 + AOD 2 27 Apr 22:27:14 22:30:23 19° 267° (W) 22:33:25 437.475
VERMONT LUNAR 27 Apr 22:36:15 22:38:29 16° 215° (SW) 22:40:39 437.305
Cosmos 2491 27 Apr 22:38:40 22:46:35 43° 89° (E) 22:54:43 435.465 / 435.565
AISAT 27 Apr 22:43:19 22:46:47 24° 70° (ENE) 22:50:22 437.250
DX 1 27 Apr 22:43:27 22:47:38 53° 74° (ENE) 22:51:53 434.975-435.025
DOVE 4 27 Apr 22:49:32 22:51:34 13° 271° (W) 22:53:24 437.250
YUBILEINY 27 Apr 22:51:22 23:00:10 89° 83° (E) 23:08:52 435.215
CUBEBUG 2 27 Apr 22:57:22 23:01:30 40° 263° (W) 23:05:45 437.445
ANTELSAT 27 Apr 23:03:16 23:06:24 18° 92° (E) 23:09:39 437.575/2403.000
DELFI C3 27 Apr 23:12:36 23:16:08 27° 265° (W) 23:19:35 145.870
CINEMA 3 27 Apr 23:16:15 23:18:32 13° 271° (W) 23:20:38 145.822/145.860
UWE-3 27 Apr 23:18:58 23:22:47 28° 265° (W) 23:26:38 435.000/436.395/437.385
O/OREOS (USA 219) 27 Apr 23:19:39 23:23:46 31° 297° (WNW) 23:27:50 437.305
FUNcube-1 27 Apr 23:22:00 23:25:57 33° 264° (W) 23:29:58 145.935
UKube-1 27 Apr 23:23:10 23:27:24 54° 260° (W) 23:31:38 .
HUMSAT D 27 Apr 23:23:58 23:28:10 66° 259° (W) 23:32:26 437.325/437.525
NANOSAT C BR1 27 Apr 23:26:05 23:28:04 13° 91° (E) 23:30:18 145.865
PHONESAT 2.4 27 Apr 23:27:36 23:30:24 21° 214° (SSW) 23:33:09 2401.200-2431.200
ESTCUBE 1 27 Apr 23:29:39 23:33:51 41° 73° (ENE) 23:38:06 437.505/2401.250
POPSAT HIP 1 27 Apr 23:30:01 23:32:26 15° 92° (E) 23:35:03 437.405
SPROUT 27 Apr 23:37:41 23:38:07 10° 66° (ENE) 23:38:51 437.525
BUGSAT 1 27 Apr 23:42:15 23:44:19 14° 92° (E) 23:46:35 437.445
50 SAT 27 Apr 23:48:03 23:51:58 53° 260° (W) 23:55:55 437.505
ZACube-1 27 Apr 23:49:44 23:52:37 17° 269° (W) 23:55:24 437.345
TIGRISAT 27 Apr 23:51:11 23:55:50 60° 100° (E) 00:00:25 435.000
UNISAT 6 27 Apr 23:56:33 00:01:16 72° 102° (ESE) 00:05:52 437.425
DUCHIFAT 1 27 Apr 23:57:48 00:01:37 31° 97° (E) 00:05:27 145.980
Cosmos 2504 27 Apr 23:57:55 00:03:22 21° 66° (ENE) 00:08:54 435.465 / 435.565
CUBEBUG 1 27 Apr 23:58:18 00:02:36 77° 77° (ENE) 00:06:56 437.445
POLYITAN 1 27 Apr 23:59:41 00:03:38 35° 97° (E) 00:07:36 437.675
VELOX 1 28 Apr 00:00:06 00:04:19 45° 261° (W) 00:08:32 145.980
QB50P1 28 Apr 00:16:35 00:20:48 55° 100° (E) 00:25:01 145.935-145.965
AISAT 28 Apr 00:19:34 00:23:18 26° 265° (W) 00:26:59 437.250
AIST 1 28 Apr 00:21:21 00:24:30 21° 90° (E) 00:27:47
DX 1 28 Apr 00:22:50 00:24:17 11° 270° (W) 00:25:29 434.975-435.025
TISAT 1 28 Apr 00:30:11 00:33:54 33° 72° (ENE) 00:37:41 437.305
RS-15 28 Apr 00:33:26 00:45:05 79° 243° (WSW) 00:57:11 29.354- 29.394
Cosmos 2491 28 Apr 00:35:33 00:43:34 38° 287° (WNW) 00:51:29 435.465 / 435.565
ANTELSAT 28 Apr 00:39:00 00:43:23 39° 287° (WNW) 00:47:38 437.575/2403.000
QB50P2 28 Apr 00:43:32 00:47:50 68° 284° (WNW) 00:52:06 145.880/145.840
JUGNU 28 Apr 00:45:16 00:47:28 12° 170° (S) 00:49:45 437.505
YUBILEINY 28 Apr 00:51:05 00:55:57 15° 280° (W) 01:00:11 435.215
NANOSAT C BR1 28 Apr 01:00:06 01:04:12 44° 286° (WNW) 01:08:16 145.865
POPSAT HIP 1 28 Apr 01:04:30 01:08:32 39° 287° (WNW) 01:12:32 437.405
ESTCUBE 1 28 Apr 01:08:06 01:10:58 16° 268° (W) 01:13:37 437.505/2401.250
SPROUT 28 Apr 01:09:31 01:13:44 63° 259° (W) 01:17:59 437.525
BUGSAT 1 28 Apr 01:16:05 01:20:01 41° 286° (WNW) 01:23:58 437.445
TIGRISAT 28 Apr 01:29:55 01:32:06 13° 294° (WNW) 01:34:01 435.000
DUCHIFAT 1 28 Apr 01:34:07 01:37:15 19° 291° (WNW) 01:40:15 145.980
UNISAT 6 28 Apr 01:36:10 01:37:29 11° 295° (WNW) 01:38:29 437.425
POLYITAN 1 28 Apr 01:36:19 01:39:19 18° 291° (WNW) 01:42:10 437.675
ITUPSAT 1 28 Apr 01:44:24 01:48:43 35° 71° (ENE) 01:53:04 437.325
Cosmos 2504 28 Apr 01:49:50 01:57:40 66° 267° (W) 02:04:55 435.465 / 435.565
QB50P1 28 Apr 01:54:33 01:56:16 12° 293° (WNW) 01:57:43 145.935-145.965
AIST 1 28 Apr 01:58:25 02:02:03 26° 284° (WNW) 02:05:38
TISAT 1 28 Apr 02:06:58 02:09:49 17° 267° (W) 02:12:30 437.305
BEESAT 28 Apr 02:13:06 02:17:52 73° 75° (ENE) 02:22:39 436.000
SWISSCUBE 28 Apr 02:16:01 02:20:49 86° 77° (ENE) 02:25:37 437.505
AIST 2 28 Apr 02:26:54 02:28:32 12° 109° (ESE) 02:30:25 435.215
JUGNU 28 Apr 02:32:19 02:35:44 16° 180° (S) 02:39:07 437.505
BEESAT 3 28 Apr 02:41:36 02:45:39 81° 121° (ESE) 02:49:48 437.485
BEESAT 2 28 Apr 02:46:15 02:50:20 74° 119° (ESE) 02:54:29 435.950
SRMSAT 28 Apr 02:47:26 02:50:04 13° 172° (S) 02:52:45 437.500
RS-15 28 Apr 02:49:19 02:56:14 16° 258° (WSW) 03:02:12 29.354- 29.394
Gurwin Techsat 1B 28 Apr 02:50:41 02:54:04 18° 91° (E) 02:57:41 435.225
DANDE 28 Apr 02:57:17 02:59:07 11° 61° (ENE) 03:01:43 436.750
Oscar 19 28 Apr 03:03:59 03:09:13 84° 281° (WNW) 03:14:24 437.125/150
KKS-1 28 Apr 03:04:48 03:08:59 44° 73° (ENE) 03:13:14 437.445
GONETS M04 28 Apr 03:14:54 03:22:17 30° 70° (ENE) 03:29:52
ITUPSAT 1 28 Apr 03:23:01 03:26:43 21° 266° (W) 03:30:16 437.325
CUSAT 1 28 Apr 03:40:31 03:47:19 32° 71° (ENE) 03:54:37 437.405
ITAMSAT 1 28 Apr 03:44:16 03:49:27 70° 103° (ESE) 03:54:37 435.822/435.867
STARS 28 Apr 03:52:58 03:57:20 83° 257° (WSW) 04:01:46 437.465
AIST 2 28 Apr 04:02:33 04:06:43 53° 303° (WNW) 04:10:55 435.215
JUGNU 28 Apr 04:21:30 04:23:58 13° 190° (S) 04:26:21 437.505
BEESAT 3 28 Apr 04:23:21 04:24:18 10° 317° (NW) 04:25:02 437.485
BEESAT 2 28 Apr 04:27:32 04:29:01 11° 316° (NW) 04:30:19 435.950
Gurwin Techsat 1B 28 Apr 04:29:16 04:34:24 50° 288° (WNW) 04:39:29 435.225
SRMSAT 28 Apr 04:35:08 04:38:28 15° 182° (S) 04:41:47 437.500
DANDE 28 Apr 04:36:04 04:43:49 62° 78° (ENE) 04:52:21 436.750
KKS-1 28 Apr 04:43:22 04:45:55 14° 269° (W) 04:48:14 437.445
AO-7 28 Apr 04:59:52 05:07:44 46° 100° (E) 05:15:41 29.400- 29.500
GONETS M04 28 Apr 05:11:03 05:19:37 55° 269° (W) 05:28:03
HORYU 2 28 Apr 05:20:10 05:24:39 67° 286° (WNW) 05:29:05 437.375
CUSAT 1 28 Apr 05:22:37 05:30:22 56° 266° (W) 05:38:22 437.405
M-CUBED/EXP-1 PRIME 28 Apr 05:24:08 05:25:56 12° 60° (ENE) 05:27:58 437.505
ITAMSAT 1 28 Apr 05:25:54 05:28:26 13° 296° (WNW) 05:30:42 435.822/435.867
MOZHAYETS 4 28 Apr 05:26:33 05:31:12 82° 260° (W) 05:35:52
JAS-2 28 Apr 05:34:20 05:40:30 88° 100° (E) 05:45:59 435.910
